contact:dominique.lefevre@mio.osupytheas.fr, maurice.libes@osupytheas.fr, didier.mallarino@osupytheas.fr
Project:EMSO http://www.emso-fr.org/EMSO-France
Depth: 2436.0 m
Title:EMSO Ligure Ouest : Data MII capteur AQUADOPP
Date,Latitude,Longitude,X_East,Y_North,Z_Up,Amplitude_X,Amplitude_Y,Amplitude_Z,Batterie,SoundSpeed,Heading,Pitch,Roll,Pressure,TIS,Speed,Direction
, degrees North, degrees East, m.s-1, m.s-1,m.s-1, 1, 1, 1, Volt, m.s-1, degree, degree, degree, dbar, degree_C, m.s-1, degree
2020-06-02T00:04:03,42.805,6.029,0.041,-0.025,-0.041,103.0,110.0,101.0,13.4,1505.2,322.8,-0.7,1.8,2470.334,13.3,0.048,121.4
2020-06-02T00:07:03,42.805,6.029,0.044,-0.008,0.005,104.0,110.0,101.0,13.4,1505.3,325.9,-0.7,1.8,2470.28,13.31,0.044,100.3
2020-06-02T00:10:03,42.805,6.029,0.048,-0.002,0.016,104.0,111.0,101.0,13.3,1505.3,327.8,-0.7,1.8,2470.328,13.31,0.048,92.4
2020-06-02T00:13:03,42.805,6.029,0.048,-0.017,-0.003,103.0,107.0,101.0,13.3,1505.3,325.7,-0.7,1.8,2470.331,13.32,0.05,109.5
2020-06-02T00:16:03,42.805,6.029,0.047,-0.012,-0.012,103.0,107.0,102.0,13.4,1505.3,326.4,-0.7,1.8,2470.293,13.32,0.048,104.3
2020-06-02T00:19:03,42.805,6.029,0.043,-0.003,0.016,103.0,112.0,101.0,13.3,1505.3,323.4,-0.7,1.8,2470.36,13.32,0.043,94.0
2020-06-02T00:22:03,42.805,6.029,0.038,-0.011,-0.006,104.0,113.0,100.0,13.3,1505.3,327.6,-0.7,1.8,2470.284,13.32,0.039,106.1
2020-06-02T00:25:03,42.805,6.029,0.033,0.004,0.002,103.0,111.0,101.0,13.4,1505.3,326.2,-0.7,1.8,2470.27,13.32,0.033,83.1
2020-06-02T00:28:03,42.805,6.029,0.035,0.007,0.023,103.0,110.0,101.0,13.4,1505.3,324.1,-0.7,1.8,2470.282,13.32,0.035,78.7
2020-06-02T00:31:03,42.805,6.029,0.038,-0.019,-0.01,104.0,113.0,101.0,13.4,1505.3,324.8,-0.7,1.8,2470.299,13.32,0.042,116.6
2020-06-02T00:34:03,42.805,6.029,0.046,-0.013,-0.012,103.0,108.0,101.0,13.4,1505.3,323.2,-0.7,1.8,2470.341,13.32,0.047,105.8
2020-06-02T00:37:03,42.805,6.029,0.021,-0.016,0.0,103.0,113.0,103.0,13.4,1505.3,324.5,-0.7,1.8,2470.295,13.32,0.026,127.3
2020-06-02T00:40:03,42.805,6.029,0.046,-0.007,0.011,103.0,110.0,101.0,13.4,1505.3,323.7,-0.7,1.8,2470.285,13.32,0.046,98.7
2020-06-02T00:43:03,42.805,6.029,0.041,-0.011,0.004,102.0,107.0,101.0,13.4,1505.3,326.2,-0.7,1.8,2470.293,13.32,0.042,105.0
2020-06-02T00:46:03,42.805,6.029,0.052,-0.028,0.0,105.0,110.0,101.0,13.4,1505.3,328.3,-0.7,1.8,2470.323,13.32,0.059,118.3
2020-06-02T00:49:03,42.805,6.029,0.051,-0.02,0.007,103.0,110.0,101.0,13.4,1505.3,324.8,-0.7,1.8,2470.324,13.32,0.054,111.4
2020-06-02T00:52:03,42.805,6.029,0.056,-0.024,-0.011,103.0,110.0,100.0,13.4,1505.3,324.8,-0.7,1.8,2470.295,13.32,0.06,113.2
2020-06-02T00:55:03,42.805,6.029,0.041,0.0,-0.017,104.0,110.0,101.0,13.4,1505.3,326.2,-0.7,1.9,2470.304,13.32,0.041,90.0
2020-06-02T00:58:03,42.805,6.029,0.057,-0.006,0.016,102.0,108.0,101.0,13.4,1505.3,323.8,-0.7,1.8,2470.331,13.32,0.057,96.0
2020-06-02T01:04:03,42.805,6.029,0.044,-0.003,0.011,105.0,110.0,103.0,13.4,1505.2,328.7,-0.7,1.8,2470.31,13.3,0.044,93.9
2020-06-02T01:07:03,42.805,6.029,0.044,-0.018,0.009,103.0,110.0,101.0,13.4,1505.3,324.5,-0.7,1.8,2470.364,13.31,0.047,112.2
2020-06-02T01:10:03,42.805,6.029,0.045,-0.022,0.002,101.0,110.0,101.0,13.4,1505.3,326.0,-0.7,1.9,2470.372,13.31,0.05,116.1
2020-06-02T01:13:03,42.805,6.029,0.06,0.006,0.011,103.0,110.0,101.0,13.4,1505.3,323.8,-0.7,1.8,2470.367,13.32,0.06,84.3
2020-06-02T01:16:03,42.805,6.029,0.05,0.0,0.022,104.0,111.0,101.0,13.4,1505.3,324.4,-0.7,1.8,2470.335,13.32,0.05,90.0
2020-06-02T01:19:03,42.805,6.029,0.055,-0.021,-0.029,103.0,110.0,100.0,13.3,1505.3,325.6,-0.7,1.8,2470.31,13.32,0.058,110.9
2020-06-02T01:22:03,42.805,6.029,0.039,-0.013,-0.007,104.0,110.0,101.0,13.4,1505.3,324.5,-0.7,1.8,2470.33,13.32,0.041,108.4
2020-06-02T01:25:03,42.805,6.029,0.043,-0.003,-0.001,103.0,110.0,100.0,13.3,1505.3,326.9,-0.7,1.8,2470.32,13.32,0.043,94.0
2020-06-02T01:28:03,42.805,6.029,0.033,0.005,0.016,103.0,112.0,101.0,13.3,1505.3,323.8,-0.7,1.8,2470.348,13.32,0.033,81.4
2020-06-02T01:31:03,42.805,6.029,0.039,-0.01,-0.002,103.0,113.0,100.0,13.4,1505.3,325.0,-0.7,1.8,2470.346,13.32,0.04,104.4
2020-06-02T01:34:03,42.805,6.029,0.052,-0.016,-0.004,103.0,109.0,101.0,13.3,1505.3,323.8,-0.7,1.8,2470.359,13.32,0.054,107.1
2020-06-02T01:37:03,42.805,6.029,0.052,-0.02,-0.022,104.0,109.0,101.0,13.4,1505.3,327.8,-0.7,1.8,2470.366,13.32,0.055,111.0
2020-06-02T01:40:03,42.805,6.029,0.04,0.008,0.004,104.0,111.0,100.0,13.4,1505.3,324.8,-0.7,1.8,2470.351,13.32,0.04,78.7
2020-06-02T01:43:03,42.805,6.029,0.025,-0.009,-0.019,104.0,111.0,101.0,13.3,1505.3,327.9,-0.7,1.8,2470.384,13.32,0.026,109.8
2020-06-02T01:46:03,42.805,6.029,0.072,0.006,-0.016,102.0,113.0,102.0,13.4,1505.3,326.7,-0.7,1.8,2470.363,13.32,0.072,85.2
2020-06-02T01:49:03,42.805,6.029,0.034,0.004,-0.003,104.0,113.0,100.0,13.4,1505.3,326.4,-0.7,1.8,2470.385,13.32,0.034,83.3
2020-06-02T01:52:03,42.805,6.029,0.047,0.0,-0.009,103.0,111.0,101.0,13.4,1505.3,324.0,-0.7,1.9,2470.352,13.32,0.047,90.0
2020-06-02T01:55:03,42.805,6.029,0.04,-0.001,-0.003,103.0,108.0,101.0,13.4,1505.3,323.1,-0.7,1.8,2470.389,13.32,0.04,91.4
2020-06-02T01:58:03,42.805,6.029,0.023,-0.016,-0.046,104.0,111.0,100.0,13.4,1505.3,328.3,-0.7,1.8,2470.357,13.32,0.028,124.8
2020-06-02T02:04:03,42.805,6.029,0.043,-0.017,-0.005,102.0,108.0,101.0,13.4,1505.2,324.6,-0.7,1.8,2470.446,13.3,0.046,111.6
2020-06-02T02:07:03,42.805,6.029,0.047,0.013,0.015,102.0,109.0,103.0,13.4,1505.3,324.4,-0.7,1.8,2470.37,13.31,0.048,74.5
2020-06-02T02:10:03,42.805,6.029,0.057,-0.004,-0.012,102.0,109.0,102.0,13.4,1505.3,326.7,-0.7,1.8,2470.376,13.31,0.057,94.0
2020-06-02T02:13:03,42.805,6.029,0.045,-0.009,-0.011,103.0,111.0,101.0,13.4,1505.3,324.7,-0.7,1.8,2470.402,13.32,0.045,101.3
2020-06-02T02:16:03,42.805,6.029,0.052,-0.002,-0.054,103.0,109.0,101.0,13.3,1505.3,327.9,-0.7,1.8,2470.382,13.32,0.052,92.2
2020-06-02T02:19:03,42.805,6.029,0.053,-0.004,-0.022,103.0,112.0,99.0,13.4,1505.3,328.0,-0.7,1.8,2470.36,13.32,0.053,94.3
2020-06-02T02:22:03,42.805,6.029,0.052,0.003,-0.014,104.0,109.0,100.0,13.4,1505.3,326.3,-0.7,1.8,2470.409,13.32,0.052,86.7
2020-06-02T02:25:03,42.805,6.029,0.036,0.0,0.006,103.0,108.0,101.0,13.4,1505.3,326.3,-0.7,1.8,2470.4,13.32,0.036,90.0
2020-06-02T02:28:03,42.805,6.029,0.049,-0.018,-0.016,102.0,109.0,101.0,13.3,1505.3,328.3,-0.7,1.9,2470.387,13.32,0.052,110.2
2020-06-02T02:31:03,42.805,6.029,0.055,0.004,-0.016,103.0,112.0,101.0,13.3,1505.3,325.2,-0.7,1.8,2470.346,13.32,0.055,85.8
2020-06-02T02:34:03,42.805,6.029,0.061,-0.008,-0.009,103.0,111.0,101.0,13.4,1505.3,324.2,-0.7,1.8,2470.393,13.32,0.061,97.5
2020-06-02T02:37:03,42.805,6.029,0.081,-0.009,-0.014,103.0,109.0,101.0,13.4,1505.3,325.7,-0.7,1.8,2470.36,13.32,0.081,96.3
2020-06-02T02:40:03,42.805,6.029,0.053,-0.003,-0.02,102.0,108.0,102.0,13.4,1505.3,323.9,-0.7,1.8,2470.381,13.32,0.053,93.2
2020-06-02T02:43:03,42.805,6.029,0.054,-0.03,-0.002,103.0,111.0,101.0,13.4,1505.3,323.9,-0.7,1.8,2470.385,13.32,0.061,119.1
2020-06-02T02:46:03,42.805,6.029,0.063,0.004,-0.006,103.0,110.0,101.0,13.4,1505.3,324.1,-0.7,1.8,2470.372,13.32,0.063,86.4
2020-06-02T02:49:03,42.805,6.029,0.055,-0.01,-0.006,103.0,109.0,101.0,13.3,1505.3,326.6,-0.7,1.8,2470.402,13.32,0.055,100.3
2020-06-02T02:52:03,42.805,6.029,0.047,-0.033,-0.008,103.0,110.0,101.0,13.4,1505.3,327.0,-0.7,1.8,2470.391,13.32,0.057,125.1
2020-06-02T02:55:03,42.805,6.029,0.044,-0.007,0.0,104.0,111.0,100.0,13.4,1505.3,327.2,-0.7,1.8,2470.405,13.32,0.044,99.0
2020-06-02T02:58:03,42.805,6.029,0.037,-0.007,-0.013,103.0,108.0,101.0,13.3,1505.3,324.2,-0.7,1.9,2470.405,13.32,0.037,100.7
2020-06-02T03:04:03,42.805,6.029,0.047,-0.012,0.007,102.0,109.0,102.0,13.4,1505.2,324.1,-0.7,1.8,2470.414,13.3,0.048,104.3
2020-06-02T03:07:03,42.805,6.029,0.033,-0.015,-0.006,103.0,111.0,101.0,13.4,1505.3,324.5,-0.7,1.8,2470.411,13.31,0.036,114.4
2020-06-02T03:10:03,42.805,6.029,0.039,-0.005,0.034,103.0,109.0,101.0,13.3,1505.3,327.2,-0.7,1.8,2470.391,13.31,0.039,97.3
2020-06-02T03:13:03,42.805,6.029,0.057,-0.015,0.03,104.0,112.0,100.0,13.4,1505.3,323.9,-0.7,1.8,2470.388,13.32,0.058,104.7
2020-06-02T03:16:03,42.805,6.029,0.043,0.0,0.012,103.0,113.0,100.0,13.4,1505.3,325.1,-0.7,1.8,2470.388,13.32,0.043,90.0
2020-06-02T03:19:03,42.805,6.029,0.051,-0.002,0.0,103.0,111.0,100.0,13.4,1505.3,328.4,-0.7,1.8,2470.395,13.32,0.051,92.2
2020-06-02T03:22:03,42.805,6.029,0.051,0.006,0.029,104.0,110.0,99.0,13.4,1505.3,324.6,-0.7,1.8,2470.43,13.32,0.051,83.3
2020-06-02T03:25:03,42.805,6.029,0.019,0.002,-0.007,103.0,111.0,101.0,13.3,1505.3,323.1,-0.7,1.8,2470.422,13.32,0.019,84.0
2020-06-02T03:28:03,42.805,6.029,0.043,-0.02,-0.026,102.0,109.0,101.0,13.4,1505.3,326.3,-0.7,1.8,2470.424,13.32,0.047,114.9
2020-06-02T03:31:03,42.805,6.029,0.04,0.008,0.008,103.0,113.0,101.0,13.4,1505.3,325.1,-0.7,1.9,2470.399,13.32,0.04,78.7
2020-06-02T03:34:03,42.805,6.029,0.031,-0.015,-0.019,104.0,113.0,101.0,13.4,1505.3,325.1,-0.7,1.8,2470.377,13.32,0.034,115.8
2020-06-02T03:37:03,42.805,6.029,0.013,-0.011,-0.049,102.0,109.0,101.0,13.4,1505.3,325.9,-0.7,1.8,2470.395,13.32,0.017,130.2
2020-06-02T03:40:03,42.805,6.029,0.018,-0.011,0.018,104.0,107.0,102.0,13.4,1505.3,327.9,-0.7,1.8,2470.391,13.32,0.021,121.4
2020-06-02T03:43:03,42.805,6.029,0.05,-0.015,0.013,103.0,111.0,101.0,13.4,1505.3,323.9,-0.7,1.8,2470.399,13.32,0.052,106.7
2020-06-02T03:46:03,42.805,6.029,0.052,-0.012,-0.011,103.0,107.0,100.0,13.4,1505.3,327.3,-0.7,1.8,2470.408,13.32,0.053,103.0
2020-06-02T03:49:03,42.805,6.029,0.032,-0.005,0.0,105.0,111.0,101.0,13.4,1505.3,325.2,-0.7,1.9,2470.392,13.32,0.032,98.9
2020-06-02T03:52:03,42.805,6.029,0.022,-0.013,-0.015,104.0,110.0,102.0,13.4,1505.3,322.7,-0.7,1.8,2470.406,13.32,0.025,120.6
2020-06-02T03:55:03,42.805,6.029,0.025,-0.014,0.003,103.0,110.0,101.0,13.3,1505.3,326.7,-0.7,1.8,2470.358,13.32,0.028,119.3
2020-06-02T03:58:03,42.805,6.029,0.043,-0.022,-0.038,102.0,113.0,101.0,13.4,1505.3,324.9,-0.7,1.8,2470.423,13.32,0.048,117.1
2020-06-02T04:04:03,42.805,6.029,0.047,-0.007,0.0,103.0,111.0,101.0,13.3,1505.2,326.1,-0.7,1.8,2470.438,13.3,0.047,98.5
2020-06-02T04:07:03,42.805,6.029,0.043,-0.004,-0.017,103.0,109.0,102.0,13.4,1505.3,324.3,-0.7,1.8,2470.417,13.31,0.043,95.3
2020-06-02T04:10:03,42.805,6.029,0.057,-0.007,-0.03,103.0,112.0,100.0,13.4,1505.3,324.8,-0.7,1.8,2470.406,13.31,0.057,97.0
2020-06-02T04:13:03,42.805,6.029,0.071,-0.017,0.011,103.0,107.0,101.0,13.3,1505.3,323.2,-0.7,1.8,2470.45,13.32,0.073,103.5
2020-06-02T04:16:03,42.805,6.029,0.039,0.003,-0.01,104.0,109.0,100.0,13.4,1505.3,325.3,-0.7,1.9,2470.419,13.32,0.039,85.6
2020-06-02T04:19:03,42.805,6.029,0.051,-0.029,-0.01,102.0,108.0,101.0,13.4,1505.3,324.9,-0.7,1.8,2470.419,13.32,0.058,119.6
2020-06-02T04:22:03,42.805,6.029,0.047,-0.005,0.006,102.0,110.0,100.0,13.3,1505.3,324.8,-0.7,1.8,2470.426,13.32,0.047,96.1
2020-06-02T04:25:03,42.805,6.029,0.023,-0.016,-0.004,104.0,111.0,101.0,13.3,1505.3,323.7,-0.7,1.9,2470.415,13.32,0.028,124.8
2020-06-02T04:28:03,42.805,6.029,0.041,0.004,0.004,102.0,110.0,102.0,13.4,1505.3,328.1,-0.7,1.8,2470.422,13.32,0.041,84.4
2020-06-02T04:31:03,42.805,6.029,0.047,-0.014,0.015,102.0,110.0,101.0,13.4,1505.3,326.6,-0.7,1.8,2470.39,13.32,0.049,106.6
2020-06-02T04:34:03,42.805,6.029,0.041,-0.008,-0.011,102.0,110.0,100.0,13.3,1505.3,326.8,-0.7,1.8,2470.405,13.32,0.041,101.0
2020-06-02T04:37:03,42.805,6.029,0.054,-0.019,-0.002,101.0,111.0,101.0,13.3,1505.3,323.6,-0.7,1.8,2470.379,13.32,0.057,109.4
2020-06-02T04:40:03,42.805,6.029,0.061,-0.022,0.006,103.0,106.0,101.0,13.3,1505.3,324.4,-0.7,1.9,2470.431,13.32,0.064,109.8
2020-06-02T04:43:03,42.805,6.029,0.048,-0.025,0.034,103.0,108.0,100.0,13.4,1505.3,323.2,-0.7,1.8,2470.4,13.32,0.054,117.5
2020-06-02T04:46:03,42.805,6.029,0.063,-0.01,0.0,103.0,111.0,100.0,13.4,1505.3,325.8,-0.7,1.8,2470.409,13.32,0.063,99.0
2020-06-02T04:49:03,42.805,6.029,0.05,-0.011,-0.015,104.0,110.0,100.0,13.4,1505.3,327.9,-0.7,1.9,2470.418,13.32,0.051,102.4
2020-06-02T04:52:03,42.805,6.029,0.03,0.005,-0.008,103.0,109.0,100.0,13.4,1505.3,325.3,-0.7,1.8,2470.394,13.32,0.03,80.5
2020-06-02T04:55:03,42.805,6.029,0.061,-0.018,-0.006,103.0,109.0,101.0,13.3,1505.3,325.4,-0.7,1.9,2470.383,13.32,0.063,106.4
2020-06-02T04:58:03,42.805,6.029,0.061,-0.025,0.021,104.0,109.0,101.0,13.4,1505.3,326.9,-0.7,1.8,2470.38,13.32,0.065,112.3
2020-06-02T05:04:03,42.805,6.029,0.028,0.003,-0.009,103.0,111.0,100.0,13.4,1505.2,323.7,-0.7,1.8,2470.487,13.3,0.028,83.9
2020-06-02T05:07:03,42.805,6.029,0.042,-0.027,-0.003,102.0,108.0,100.0,13.4,1505.3,327.0,-0.7,1.8,2470.436,13.31,0.049,122.7
2020-06-02T05:10:03,42.805,6.029,0.062,-0.02,-0.014,103.0,108.0,101.0,13.4,1505.3,326.0,-0.7,1.9,2470.438,13.31,0.065,107.9
2020-06-02T05:13:03,42.805,6.029,0.06,-0.024,0.0,103.0,106.0,101.0,13.4,1505.3,323.8,-0.7,1.8,2470.426,13.32,0.064,111.8
2020-06-02T05:16:03,42.805,6.029,0.014,-0.026,-0.034,102.0,109.0,101.0,13.4,1505.3,327.9,-0.7,1.8,2470.403,13.32,0.029,151.7
2020-06-02T05:19:03,42.805,6.029,0.029,-0.026,-0.018,103.0,108.0,101.0,13.3,1505.3,326.0,-0.7,1.9,2470.413,13.32,0.038,131.9
2020-06-02T05:22:03,42.805,6.029,0.028,-0.01,-0.014,103.0,110.0,101.0,13.3,1505.3,326.6,-0.7,1.8,2470.405,13.32,0.029,109.6
2020-06-02T05:25:03,42.805,6.029,0.036,-0.022,0.0,102.0,109.0,101.0,13.4,1505.3,326.4,-0.7,1.8,2470.419,13.32,0.042,121.4
2020-06-02T05:28:03,42.805,6.029,0.009,0.012,0.018,102.0,112.0,101.0,13.4,1505.3,325.6,-0.7,1.8,2470.411,13.32,0.015,36.9
2020-06-02T05:31:03,42.805,6.029,0.033,-0.024,-0.006,103.0,109.0,101.0,13.4,1505.3,326.5,-0.7,1.8,2470.386,13.32,0.04,126.0
2020-06-02T05:34:03,42.805,6.029,0.052,-0.014,0.007,103.0,107.0,100.0,13.4,1505.3,326.8,-0.7,1.8,2470.422,13.32,0.053,105.1
2020-06-02T05:37:03,42.805,6.029,0.044,-0.023,-0.014,103.0,108.0,100.0,13.3,1505.3,324.7,-0.7,1.8,2470.39,13.32,0.049,117.6
2020-06-02T05:40:03,42.805,6.029,0.048,-0.007,0.014,103.0,110.0,100.0,13.4,1505.3,326.2,-0.7,1.8,2470.415,13.32,0.048,98.3
2020-06-02T05:43:03,42.805,6.029,0.047,-0.012,-0.002,103.0,107.0,101.0,13.4,1505.3,322.7,-0.7,1.8,2470.375,13.32,0.048,104.3
2020-06-02T05:46:03,42.805,6.029,0.055,-0.006,0.004,103.0,112.0,100.0,13.4,1505.3,326.1,-0.7,1.8,2470.397,13.32,0.055,96.2
2020-06-02T05:49:03,42.805,6.029,0.025,-0.005,-0.015,102.0,108.0,100.0,13.3,1505.3,325.2,-0.7,1.8,2470.353,13.32,0.025,101.3
2020-06-02T05:52:03,42.805,6.029,0.044,-0.009,-0.02,105.0,110.0,100.0,13.3,1505.3,327.1,-0.7,1.8,2470.382,13.32,0.044,101.6
2020-06-02T05:55:03,42.805,6.029,0.043,-0.015,0.007,105.0,111.0,100.0,13.4,1505.3,327.9,-0.7,1.8,2470.385,13.32,0.045,109.2
2020-06-02T05:58:03,42.805,6.029,0.033,-0.015,-0.026,104.0,108.0,99.0,13.4,1505.3,326.1,-0.7,1.8,2470.393,13.32,0.036,114.4
2020-06-02T06:04:03,42.805,6.029,0.061,-0.001,0.016,102.0,109.0,101.0,13.4,1505.2,325.2,-0.7,1.8,2470.401,13.3,0.061,90.9
2020-06-02T06:07:03,42.805,6.029,0.037,-0.005,-0.02,103.0,109.0,100.0,13.3,1505.3,324.6,-0.7,1.9,2470.422,13.31,0.037,97.7
2020-06-02T06:10:03,42.805,6.029,0.046,0.002,-0.011,102.0,106.0,101.0,13.4,1505.3,324.5,-0.7,1.8,2470.409,13.31,0.046,87.5
2020-06-02T06:13:03,42.805,6.029,0.059,-0.034,0.005,103.0,110.0,101.0,13.4,1505.3,326.1,-0.7,1.8,2470.409,13.32,0.068,120.0
2020-06-02T06:16:03,42.805,6.029,0.039,-0.006,0.004,102.0,106.0,101.0,13.4,1505.3,324.2,-0.7,1.8,2470.384,13.32,0.039,98.7
2020-06-02T06:19:03,42.805,6.029,0.038,-0.013,-0.021,103.0,107.0,100.0,13.3,1505.3,327.4,-0.7,1.8,2470.366,13.32,0.04,108.9
2020-06-02T06:22:03,42.805,6.029,0.06,-0.012,0.025,103.0,109.0,100.0,13.4,1505.3,327.6,-0.7,1.9,2470.374,13.32,0.061,101.3
2020-06-02T06:25:03,42.805,6.029,0.039,-0.028,-0.031,103.0,109.0,100.0,13.3,1505.3,327.9,-0.7,1.8,2470.379,13.32,0.048,125.7
2020-06-02T06:28:03,42.805,6.029,0.036,-0.001,-0.025,102.0,112.0,101.0,13.3,1505.3,326.6,-0.7,1.8,2470.337,13.32,0.036,91.6
2020-06-02T06:31:03,42.805,6.029,0.052,-0.034,0.002,102.0,107.0,101.0,13.3,1505.3,326.7,-0.7,1.8,2470.336,13.32,0.062,123.2
2020-06-02T06:34:03,42.805,6.029,0.075,-0.025,0.009,102.0,107.0,101.0,13.3,1505.3,327.5,-0.7,1.8,2470.369,13.32,0.079,108.4
2020-06-02T06:37:03,42.805,6.029,0.036,-0.026,-0.014,103.0,108.0,100.0,13.4,1505.3,326.2,-0.7,1.8,2470.325,13.32,0.044,125.8
2020-06-02T06:40:03,42.805,6.029,0.053,0.0,0.018,101.0,108.0,101.0,13.4,1505.3,323.6,-0.7,1.8,2470.367,13.32,0.053,90.0
2020-06-02T06:43:03,42.805,6.029,0.04,-0.008,-0.013,103.0,108.0,100.0,13.4,1505.3,324.1,-0.8,1.9,2470.388,13.32,0.04,101.3
2020-06-02T06:46:03,42.805,6.029,0.054,-0.003,-0.032,103.0,110.0,101.0,13.3,1505.3,326.3,-0.7,1.8,2470.356,13.32,0.054,93.2
2020-06-02T06:49:03,42.805,6.029,0.057,-0.009,-0.022,101.0,108.0,101.0,13.4,1505.3,323.2,-0.7,1.9,2470.391,13.32,0.057,99.0
2020-06-02T06:52:03,42.805,6.029,0.042,-0.003,0.019,102.0,108.0,100.0,13.3,1505.3,328.0,-0.7,1.8,2470.334,13.32,0.042,94.1
2020-06-02T06:55:03,42.805,6.029,0.038,0.0,-0.013,103.0,108.0,101.0,13.3,1505.3,325.2,-0.7,1.9,2470.319,13.32,0.038,90.0
2020-06-02T06:58:03,42.805,6.029,0.026,-0.018,-0.025,103.0,109.0,100.0,13.4,1505.3,326.2,-0.7,1.9,2470.341,13.32,0.031,124.7
2020-06-02T07:04:03,42.805,6.029,0.046,-0.001,0.029,102.0,112.0,100.0,13.4,1505.2,328.2,-0.7,1.8,2470.413,13.3,0.046,91.2
2020-06-02T07:07:03,42.805,6.029,0.04,0.016,0.008,102.0,109.0,101.0,13.3,1505.3,326.3,-0.7,1.9,2470.363,13.31,0.043,68.2
2020-06-02T07:10:03,42.805,6.029,0.053,-0.01,-0.003,103.0,110.0,100.0,13.3,1505.3,323.5,-0.7,1.8,2470.36,13.31,0.053,100.7
2020-06-02T07:13:03,42.805,6.029,0.06,-0.006,-0.004,104.0,110.0,101.0,13.4,1505.3,324.6,-0.7,1.8,2470.361,13.32,0.06,95.7
2020-06-02T07:16:03,42.805,6.029,0.05,-0.007,-0.029,103.0,110.0,100.0,13.3,1505.3,324.6,-0.7,1.8,2470.351,13.32,0.05,98.0
2020-06-02T07:19:03,42.805,6.029,0.072,-0.016,-0.023,102.0,109.0,100.0,13.4,1505.3,327.8,-0.7,1.8,2470.35,13.32,0.073,102.5
2020-06-02T07:22:03,42.805,6.029,0.042,-0.018,-0.004,103.0,109.0,100.0,13.3,1505.3,322.8,-0.7,1.8,2470.339,13.32,0.045,113.2
2020-06-02T07:25:03,42.805,6.029,0.048,-0.003,-0.014,102.0,111.0,102.0,13.4,1505.3,325.2,-0.7,1.8,2470.324,13.32,0.048,93.6
2020-06-02T07:28:03,42.805,6.029,0.055,-0.008,0.007,102.0,111.0,101.0,13.4,1505.3,327.3,-0.7,1.8,2470.324,13.32,0.055,98.3
2020-06-02T07:31:03,42.805,6.029,0.045,-0.014,0.003,102.0,110.0,100.0,13.4,1505.3,327.8,-0.7,1.8,2470.31,13.32,0.047,107.3
2020-06-02T07:34:03,42.805,6.029,0.061,-0.014,-0.005,103.0,112.0,99.0,13.3,1505.3,327.2,-0.7,1.8,2470.302,13.32,0.062,102.9
2020-06-02T07:37:03,42.805,6.029,0.06,0.0,-0.006,103.0,110.0,100.0,13.4,1505.3,327.7,-0.7,1.9,2470.332,13.32,0.06,90.0
2020-06-02T07:40:03,42.805,6.029,0.045,0.001,-0.018,102.0,109.0,100.0,13.3,1505.3,325.1,-0.7,1.8,2470.35,13.32,0.045,88.7
2020-06-02T07:43:03,42.805,6.029,0.057,-0.004,-0.03,102.0,111.0,101.0,13.4,1505.3,328.1,-0.7,1.8,2470.374,13.32,0.057,94.0
2020-06-02T07:46:03,42.805,6.029,0.037,-0.002,-0.004,102.0,107.0,101.0,13.4,1505.3,327.6,-0.7,1.8,2470.315,13.32,0.037,93.1
2020-06-02T07:49:03,42.805,6.029,0.065,-0.006,-0.032,104.0,111.0,100.0,13.3,1505.3,323.2,-0.7,1.8,2470.307,13.32,0.065,95.3
2020-06-02T07:52:03,42.805,6.029,0.037,-0.01,0.013,103.0,111.0,100.0,13.3,1505.3,324.9,-0.7,1.8,2470.272,13.32,0.038,105.1
2020-06-02T07:55:03,42.805,6.029,0.061,-0.027,0.005,102.0,109.0,100.0,13.4,1505.3,327.6,-0.7,1.9,2470.288,13.32,0.066,113.9
2020-06-02T07:58:03,42.805,6.029,0.042,-0.001,0.008,103.0,109.0,102.0,13.3,1505.3,327.4,-0.7,1.8,2470.288,13.32,0.042,91.4
2020-06-02T08:04:03,42.805,6.029,0.046,-0.004,-0.027,102.0,110.0,100.0,13.3,1505.2,324.6,-0.7,1.8,2470.31,13.3,0.046,95.0
2020-06-02T08:07:03,42.805,6.029,0.05,-0.032,-0.027,103.0,107.0,100.0,13.4,1505.3,326.2,-0.7,1.9,2470.35,13.31,0.059,122.6
2020-06-02T08:10:03,42.805,6.029,0.018,0.003,-0.015,102.0,110.0,100.0,13.4,1505.3,325.3,-0.7,1.8,2470.319,13.31,0.018,80.5
2020-06-02T08:13:03,42.805,6.029,0.072,0.012,0.002,103.0,107.0,100.0,13.4,1505.3,324.7,-0.7,1.8,2470.311,13.32,0.072,80.5
2020-06-02T08:16:03,42.805,6.029,0.055,0.009,-0.015,100.0,108.0,101.0,13.4,1505.3,325.6,-0.7,1.8,2470.285,13.32,0.055,80.7
2020-06-02T08:19:03,42.805,6.029,0.07,-0.003,-0.02,103.0,111.0,101.0,13.4,1505.3,325.2,-0.7,1.8,2470.282,13.32,0.07,92.4
2020-06-02T08:22:03,42.805,6.029,0.055,0.008,-0.011,102.0,107.0,101.0,13.4,1505.3,324.9,-0.7,1.8,2470.289,13.32,0.055,81.7
2020-06-02T08:25:03,42.805,6.029,0.067,-0.006,-0.027,104.0,110.0,100.0,13.4,1505.3,326.4,-0.7,1.9,2470.283,13.32,0.067,95.1
2020-06-02T08:28:03,42.805,6.029,0.053,0.007,-0.005,104.0,109.0,101.0,13.4,1505.3,325.5,-0.7,1.8,2470.277,13.32,0.053,82.5
2020-06-02T08:31:03,42.805,6.029,0.059,-0.006,-0.004,104.0,109.0,100.0,13.3,1505.3,325.7,-0.7,1.8,2470.261,13.32,0.059,95.8
2020-06-02T08:34:03,42.805,6.029,0.036,-0.001,-0.021,103.0,109.0,101.0,13.3,1505.3,324.6,-0.7,1.9,2470.276,13.32,0.036,91.6
2020-06-02T08:37:03,42.805,6.029,0.046,-0.004,-0.001,103.0,108.0,101.0,13.4,1505.3,326.7,-0.7,1.9,2470.276,13.32,0.046,95.0
2020-06-02T08:40:03,42.805,6.029,0.043,-0.002,-0.043,103.0,108.0,100.0,13.4,1505.3,328.5,-0.7,1.9,2470.212,13.32,0.043,92.7
2020-06-02T08:43:03,42.805,6.029,0.049,0.012,-0.022,104.0,109.0,100.0,13.4,1505.3,323.8,-0.7,1.8,2470.268,13.32,0.05,76.2
2020-06-02T08:46:03,42.805,6.029,0.058,-0.006,-0.01,102.0,109.0,101.0,13.4,1505.3,325.6,-0.7,1.9,2470.333,13.32,0.058,95.9
2020-06-02T08:49:03,42.805,6.029,0.054,-0.022,-0.042,104.0,106.0,100.0,13.4,1505.3,326.0,-0.8,1.8,2470.274,13.32,0.058,112.2
2020-06-02T08:52:03,42.805,6.029,0.053,-0.013,-0.024,103.0,109.0,100.0,13.4,1505.3,326.9,-0.7,1.8,2470.274,13.32,0.054,103.8
2020-06-02T08:55:03,42.805,6.029,0.059,-0.019,-0.025,102.0,109.0,101.0,13.4,1505.3,327.9,-0.7,1.8,2470.265,13.32,0.061,107.8
2020-06-02T08:58:03,42.805,6.029,0.053,-0.005,-0.022,103.0,106.0,100.0,13.4,1505.3,326.5,-0.7,1.8,2470.232,13.32,0.053,95.4
2020-06-02T09:04:03,42.805,6.029,0.031,0.014,-0.008,102.0,107.0,100.0,13.3,1505.2,328.7,-0.7,1.8,2470.313,13.3,0.034,65.7
2020-06-02T09:07:03,42.805,6.029,0.036,0.0,-0.036,102.0,110.0,100.0,13.4,1505.3,326.2,-0.7,1.8,2470.263,13.31,0.036,90.0
2020-06-02T09:10:03,42.805,6.029,0.08,-0.007,-0.01,104.0,108.0,101.0,13.3,1505.3,326.7,-0.7,1.8,2470.211,13.31,0.08,95.0
2020-06-02T09:13:03,42.805,6.029,0.059,0.001,-0.036,103.0,110.0,102.0,13.4,1505.3,324.4,-0.7,1.8,2470.24,13.32,0.059,89.0
2020-06-02T09:16:03,42.805,6.029,0.046,-0.004,-0.048,103.0,109.0,101.0,13.4,1505.3,325.4,-0.7,1.8,2470.253,13.32,0.046,95.0
2020-06-02T09:19:03,42.805,6.029,0.043,0.005,-0.019,103.0,110.0,101.0,13.4,1505.3,323.7,-0.7,1.8,2470.221,13.32,0.043,83.4
2020-06-02T09:22:03,42.805,6.029,0.072,-0.006,-0.008,103.0,106.0,100.0,13.3,1505.3,327.7,-0.7,1.8,2470.238,13.32,0.072,94.8
2020-06-02T09:25:03,42.805,6.029,0.049,-0.019,0.0,101.0,106.0,100.0,13.4,1505.3,327.1,-0.7,1.8,2470.282,13.32,0.052,111.2
2020-06-02T09:28:03,42.805,6.029,0.039,0.002,-0.008,103.0,108.0,101.0,13.3,1505.3,324.7,-0.7,1.9,2470.239,13.32,0.039,87.1
2020-06-02T09:31:03,42.805,6.029,0.047,0.0,0.002,102.0,109.0,100.0,13.4,1505.3,326.5,-0.7,1.8,2470.229,13.32,0.047,90.0
2020-06-02T09:34:03,42.805,6.029,0.066,-0.013,-0.012,101.0,108.0,101.0,13.3,1505.3,326.1,-0.7,1.8,2470.21,13.32,0.067,101.1
2020-06-02T09:37:03,42.805,6.029,0.04,0.016,0.01,103.0,108.0,101.0,13.3,1505.3,327.1,-0.7,1.9,2470.216,13.32,0.043,68.2
2020-06-02T09:40:03,42.805,6.029,0.055,-0.007,-0.045,102.0,108.0,101.0,13.4,1505.3,326.6,-0.7,1.8,2470.242,13.32,0.055,97.3
2020-06-02T09:43:03,42.805,6.029,0.067,0.013,0.016,106.0,111.0,100.0,13.4,1505.3,327.3,-0.7,1.9,2470.208,13.32,0.068,79.0
2020-06-02T09:46:03,42.805,6.029,0.059,0.0,0.022,103.0,106.0,101.0,13.4,1505.3,325.3,-0.7,1.8,2470.179,13.32,0.058,90.0
2020-06-02T09:49:03,42.805,6.029,0.035,-0.018,-0.04,104.0,106.0,101.0,13.3,1505.3,324.5,-0.7,1.8,2470.218,13.32,0.039,117.2
2020-06-02T09:52:03,42.805,6.029,0.059,-0.007,-0.047,102.0,106.0,101.0,13.4,1505.3,324.4,-0.7,1.8,2470.186,13.32,0.059,96.8
2020-06-02T09:55:03,42.805,6.029,0.069,0.002,-0.018,103.0,106.0,101.0,13.3,1505.3,325.1,-0.7,1.8,2470.203,13.32,0.069,88.3
2020-06-02T09:58:03,42.805,6.029,0.052,-0.011,-0.006,103.0,108.0,99.0,13.4,1505.3,324.0,-0.7,1.9,2470.217,13.32,0.053,101.9